sat.trackr.live / text

‹ back to catalog

ONEWEB-0597

NORAD 54663 · 2022-166X

PAYLOAD ACTIVE UNKNOWN

§ Identity

Operator
Country
UK
Launch date
2022-12-08
Launch site
AFETR
Launch vehicle
Mass (kg)
RCS (m²)

Purposes: comms

External: N2YO · Heavens-Above · Gunter

§ Orbital elements

Epoch: 2026-09-19T16:20:46.177728Z

Period
108.94 min
Inclination
87.9277°
Eccentricity
0.0002140
Mean motion
13.21826901 rev/d
Perigee alt
1,176.1 km
Apogee alt
1,179.4 km
Semi-major
7,555.9 km
B*
1.7026e-4
RAAN
225.1764°
Arg perigee
81.8449°
Mean anomaly
278.2927°
Rev number
18,402

§ Raw data

ONEWEB-05971 54663U 22166X   26262.68109002  .00000083  00000+0  17026-3 0  99942 54663  87.9277 225.1764 0002140  81.8449 278.2927 13.21826901184029

JSON: /api/v1/satellites/54663 · /tle

For live sub-satellite position, see the globe view (requires WebGL).

§ Visibility from observer

Set your observer location to see the next 7 days of passes ≥ 10°. The values pass through the URL so the page stays shareable.

No JS? Fill the form by hand. The geolocation button needs JavaScript.